SCP
0 0 1 1 1 1 1 1 1 1 1 1 1 1 1 1 1 1 1 1 1 1 1 1 1 1 1 1 1 1 1 1 1 0 0 0 0 0 0 0 0 0 0
0 0 1 1 1 1 1 1 1 1 1 1 1 1 1 1 1 1 1 1 1 1 1 1 1 1 1 1 1 1 1 1 1 0 0 0 0 0 0 0 0 0 0
0 0 1 1 1 1 1 1 1 1 1 1 1 1 1 1 1 1 1 1 0 0 1 1 1 1 1 1 1 1 1 1 1 0 0 0 0 0 0 0 0 0 0
0 0 1 1 1 1 1 0 1 1 1 1 1 1 1 1 1 1 1 1 0 0 1 1 1 1 1 1 1 1 1 1 1 0 0 0 0 0 0 0 0 0 0
0 0 1 1 1 1 0 0 1 1 1 1 1 1 1 1 1 1 1 1 1 1 1 1 1 1 1 1 1 1 1 1 1 0 0 0 0 0 0 0 0 0 0
1 1 1 1 1 1 0 0 1 1 1 1 1 1 1 1 1 1 1 1 1 1 1 1 1 1 1 1 1 1 1 0 0 0 0 0 0 0 0 0 0 0 0
1 1 1 1 1 1 1 1 0 1 1 1 1 1 1 1 1 1 1 1 1 1 1 1 1 1 1 1 1 1 1 0 0 0 0 0 0 0 0 0 0 0 0
1 1 1 1 1 1 1 1 0 0 1 1 1 1 1 1 1 1 1 1 1 1 1 1 1 1 1 1 1 1 1 0 0 0 0 0 0 0 1 0 0 0 0
1 1 1 1 1 1 1 1 0 0 1 1 1 1 1 1 1 1 1 1 1 1 1 1 0 0 1 1 1 1 1 0 0 0 0 0 0 1 1 1 0 0 0
1 1 0 0 0 1 1 1 1 1 1 1 1 1 1 1 1 1 1 1 1 1 1 1 0 0 1 1 1 1 0 0 0 0 0 0 0 1 1 1 1 0 0
1 0 0 0 0 1 1 1 1 1 1 1 1 1 1 1 1 1 1 1 1 1 0 1 0 0 0 0 0 0 0 0 0 0 0 0 1 1 1 1 1 1 0
1 1 0 0 1 1 1 1 1 1 1 1 1 1 1 1 0 1 1 1 1 1 0 1 0 0 0 0 0 0 0 0 0 0 0 1 1 1 1 1 1 1 1
1 1 1 1 1 1 1 1 1 1 1 1 1 1 0 0 0 0 0 0 1 0 0 0 0 0 0 0 0 0 0 0 0 0 0 1 1 1 1 1 1 1 1
2 2 1 1 1 1 1 1 1 1 1 1 1 1 1 0 0 0 0 0 0 0 0 0 0 0 0 0 0 0 0 0 0 0 0 1 1 1 1 1 1 1 1
2 2 2 2 2 2 1 1 1 1 1 1 1 1 1 1 1 0 0 0 0 0 0 0 0 0 0 0 0 0 0 0 0 0 0 1 1 1 1 1 1 1 1
3 3 2 2 2 2 2 1 1 1 1 1 1 1 1 1 1 0 0 0 0 0 0 0 0 0 0 0 0 0 0 0 0 0 0 1 1 1 1 1 1 1 1
3 3 2 2 2 2 2 1 1 1 1 1 1 1 1 1 1 1 1 0 0 0 0 0 0 0 0 0 0 0 0 0 0 0 0 0 1 1 1 1 1 2 2
4 3 3 2 2 2 2 2 1 1 1 1 1 1 1 1 1 1 1 1 1 0 0 0 0 0 0 0 0 0 0 0 0 0 0 0 0 1 1 1 1 2 2
4 3 3 2 2 2 2 2 1 1 1 1 1 1 1 1 0 0 1 1 1 1 0 0 0 0 0 0 0 0 0 0 0 0 0 0 0 0 1 1 1 1 1
3 3 2 2 2 2 2 1 1 1 1 1 1 1 1 1 0 0 0 0 0 0 0 0 0 0 0 0 0 0 0 0 0 0 0 0 0 0 1 1 1 1 1
2 2 2 2 2 2 2 1 1 1 1 1 1 1 1 1 1 0 0 0 0 0 0 0 0 0 0 0 0 0 0 0 0 0 0 0 0 0 1 1 1 1 1
2 2 2 2 2 2 2 2 1 1 1 1 1 1 1 1 1 1 1 0 0 0 0 0 0 0 0 0 0 0 0 0 0 0 0 0 0 0 1 1 1 1 1
2 2 2 2 2 2 2 1 1 1 1 1 1 1 1 1 1 1 1 0 0 0 0 0 0 0 0 0 0 0 0 0 0 0 0 0 0 0 0 1 1 1 1
2 2 2 2 2 2 1 1 1 1 1 1 1 1 1 1 1 1 1 1 1 1 0 0 0 0 0 0 0 0 0 0 0 0 0 0 0 0 0 0 0 1 1
3 3 3 3 2 2 2 2 1 1 1 1 1 1 1 1 1 1 1 1 1 1 1 0 0 0 0 0 0 0 0 0 0 0 0 0 0 0 0 0 1 1 1
4 4 4 4 3 2 2 2 1 1 1 1 1 1 1 1 1 1 1 1 1 1 1 0 0 0 0 0 1 1 1 1 1 1 0 0 1 1 1 1 1 1 1
Wind_Speed
2 2 7 10 11 11 12 13 14 15 15 16 16 16 16 17 17 17 16 16 16 16 16 16 16 16 15 15 15 14 14 14 14 14 14 14 14 14 14 14 13 9 13
5 4 9 10 11 11 12 13 14 15 15 15 15 15 16 16 16 16 15 16 16 16 16 15 15 14 14 14 13 13 13 13 13 13 13 12 13 13 13 13 12 8 13
7 5 8 10 11 12 13 13 14 14 15 15 15 15 15 15 15 15 15 15 15 15 15 14 14 13 13 12 12 12 12 12 12 12 11 6 7 11 12 13 13 12 12
7 5 7 11 11 12 13 14 14 14 14 14 14 14 14 14 14 14 14 14 14 14 14 13 13 13 12 11 10 10 10 11 11 11 5 4 5 11 12 12 12 12 11
6 5 8 13 12 13 13 13 13 13 13 13 13 13 14 14 14 14 13 14 14 13 13 13 12 11 11 10 9 9 8 9 9 7 4 3 4 10 12 12 12 11 11
6 5 9 14 13 13 13 13 13 13 13 12 12 13 13 13 13 13 13 13 12 12 12 11 11 10 10 9 8 7 6 6 6 4 4 4 4 10 11 12 11 11 11
7 5 7 14 13 13 13 12 12 12 12 12 12 13 13 13 13 13 13 12 12 12 11 11 10 9 8 7 7 6 5 6 4 4 3 3 5 10 11 11 11 11 11
9 7 7 12 13 13 12 12 12 12 12 12 12 13 12 12 12 11 12 12 12 12 11 10 9 8 7 6 5 4 4 5 6 5 4 4 7 10 11 11 11 11 11
9 7 5 6 9 12 12 11 11 11 11 11 12 12 12 11 11 11 11 10 11 11 11 10 8 7 6 4 4 3 4 6 5 4 6 4 8 11 12 11 11 11 10
7 6 5 5 4 5 6 10 11 11 11 11 11 11 11 11 10 10 9 9 10 10 10 9 8 6 4 3 3 3 3 4 4 4 3 5 10 11 12 12 11 11 11
7 5 5 5 5 5 5 8 8 10 9 9 8 10 9 4 4 5 7 9 9 9 9 8 7 6 4 2 2 2 2 2 4 3 3 8 11 12 12 12 12 11 11
8 7 6 6 6 5 5 4 3 3 4 4 3 4 3 3 3 4 7 9 9 9 8 7 6 5 2 0 1 1 1 2 3 3 4 10 11 12 12 12 12 11 11
9 8 6 7 7 5 3 4 2 2 2 3 3 4 3 3 2 2 2 3 4 5 3 3 3 1 1 1 1 1 1 2 2 3 5 11 11 13 13 13 12 12 11
9 8 6 7 6 6 5 4 3 3 2 3 3 4 3 2 2 2 2 2 2 1 2 2 1 2 1 2 2 2 2 2 2 2 4 11 11 12 13 13 13 12 12
9 8 7 7 7 6 5 4 4 4 4 4 3 4 4 4 4 3 2 2 2 2 2 2 2 2 2 2 2 2 2 3 4 4 3 11 12 12 12 13 13 12 12
9 8 7 7 7 6 5 4 4 4 4 3 3 5 5 4 4 4 3 3 3 3 3 3 3 3 2 2 2 2 2 3 3 4 4 7 13 12 12 13 13 13 13
10 8 8 8 7 6 5 5 4 4 4 4 4 5 5 5 5 4 3 3 3 3 3 2 2 2 2 2 2 2 2 3 4 4 4 4 5 10 13 13 13 13 14
10 9 9 8 7 6 5 4 4 4 4 4 4 4 5 5 5 4 3 3 3 3 2 2 2 2 1 1 1 2 2 2 4 4 4 4 4 5 9 14 13 13 14
11 10 8 7 7 6 5 3 3 4 4 3 3 4 4 5 5 4 3 3 3 2 2 3 2 2 2 1 2 2 2 2 3 4 4 5 5 5 4 8 12 13 14
10 10 9 8 7 6 4 3 2 2 2 2 3 4 5 4 5 4 3 3 3 2 2 2 2 2 2 2 1 1 2 2 2 2 4 4 5 6 5 5 5 8 14
9 9 9 8 7 5 3 3 3 2 2 2 3 4 5 5 5 4 3 3 3 3 3 3 2 2 1 1 1 1 2 2 2 2 3 3 4 5 4 5 4 3 4
11 10 10 9 8 7 5 4 3 3 2 3 2 3 5 5 5 5 4 3 3 3 3 3 2 2 1 2 2 1 2 3 3 2 2 2 3 3 4 6 5 5 4
11 12 11 10 9 8 6 3 2 2 1 1 2 2 3 5 5 4 5 4 3 3 3 3 3 3 2 1 2 3 2 3 2 3 2 1 2 2 3 3 5 5 5
13 11 10 10 9 8 7 6 6 5 4 4 3 3 3 4 4 4 4 5 4 3 3 3 4 3 3 2 1 2 3 3 2 2 3 2 2 2 3 3 4 4 4
13 11 10 10 9 8 8 8 6 5 4 3 3 4 4 3 3 4 4 4 4 3 3 3 3 3 3 3 2 2 1 1 2 2 2 3 2 2 2 2 2 2 4
11 10 10 10 9 9 8 8 8 7 6 5 4 4 4 3 2 4 4 4 4 3 4 4 3 3 3 3 3 2 2 2 2 3 3 2 2 2 1 1 2 2 2
Wind_Direction
140 140 115 107 104 101 99 100 100 102 105 106 109 110 112 113 114 116 117 118 119 120 120 120 119 119 119 117 118 119 120 120 121 122 122 122 122 122 120 118 115 113 117
142 136 122 113 109 107 106 108 106 105 107 110 111 114 116 117 118 119 120 121 122 122 122 120 119 119 120 120 121 122 122 122 123 124 124 124 122 122 124 123 123 125 122
130 127 123 119 115 111 110 112 111 109 109 113 116 118 119 120 121 121 122 125 126 126 125 123 122 122 123 122 124 125 125 125 123 123 119 111 117 122 127 129 129 128 126
133 128 124 122 118 114 111 112 113 112 112 114 120 122 123 124 125 126 128 129 129 129 128 127 126 126 126 126 126 125 128 129 127 125 116 117 122 127 128 130 132 133 131
128 125 131 124 121 117 114 115 115 115 115 116 120 126 128 128 128 129 129 131 131 132 132 132 130 129 129 127 126 127 130 131 135 126 119 119 121 134 134 134 134 136 136
126 126 135 131 129 125 123 121 121 119 119 119 123 127 131 132 132 131 131 132 133 133 134 133 132 132 132 131 130 128 128 132 132 120 124 134 134 141 139 138 137 137 138
133 132 137 135 134 131 129 127 126 125 123 123 127 130 132 133 134 134 134 135 136 136 137 138 139 138 138 139 134 125 122 129 124 122 130 141 148 148 145 143 142 141 139
141 138 139 140 139 136 134 133 133 131 128 126 130 133 135 135 136 138 138 139 139 140 140 140 142 143 144 140 132 123 129 135 131 133 139 148 156 154 151 148 148 146 145
140 138 139 143 143 142 140 138 137 135 133 130 130 132 135 139 140 141 141 141 141 142 143 145 148 149 148 146 141 135 138 141 135 143 150 155 160 160 157 155 155 154 155
139 142 143 143 140 142 145 146 144 143 141 138 136 135 135 139 140 143 144 145 145 146 149 151 154 155 154 156 159 154 137 129 139 146 146 164 166 166 164 163 163 163 163
146 151 151 153 154 152 157 157 150 148 147 145 140 140 134 124 128 139 150 151 150 154 157 160 162 165 169 174 186 168 126 130 144 148 159 170 171 174 172 170 169 169 169
159 167 163 163 164 167 168 148 144 146 147 146 146 138 127 132 148 150 159 163 164 165 167 171 176 180 178 173 240 169 126 150 152 166 178 176 179 181 178 176 177 177 177
164 167 168 169 167 169 157 148 149 145 152 157 159 150 138 135 144 142 144 163 169 171 168 173 178 181 177 190 215 182 180 167 166 182 184 184 188 186 184 182 182 185 185
159 163 162 160 158 162 153 156 159 165 168 166 167 161 149 146 155 158 159 160 168 170 173 176 190 203 207 219 216 207 194 177 175 180 192 192 194 191 189 188 189 191 194
153 158 161 156 155 154 150 162 164 174 173 175 168 167 165 162 170 173 175 174 185 182 181 187 203 213 225 232 229 223 199 185 182 182 191 194 195 195 194 194 195 198 199
158 159 158 154 155 152 154 158 161 171 172 169 169 171 170 168 167 168 174 180 191 192 190 189 201 197 205 208 222 219 193 191 185 186 194 199 203 201 201 200 201 204 205
162 158 158 157 155 155 159 162 157 170 170 172 178 177 175 172 168 166 169 182 193 192 187 182 191 179 189 198 214 223 211 200 191 197 195 197 206 207 206 208 210 210 210
160 161 165 162 158 160 159 154 154 167 173 178 178 181 183 177 172 164 172 192 190 179 168 170 173 168 197 204 217 238 229 206 203 198 196 199 201 208 213 214 216 215 214
164 163 165 160 162 166 161 151 147 154 175 180 173 176 182 178 172 167 177 193 182 174 177 188 172 170 186 208 228 235 238 227 212 203 198 201 200 203 206 217 218 217 219
165 163 163 162 167 163 151 138 130 143 173 176 173 179 175 175 172 165 178 191 173 165 178 180 174 173 177 193 238 269 262 249 225 204 207 205 204 206 205 209 216 222 223
165 165 167 166 171 161 153 155 157 174 180 178 186 182 180 180 174 171 177 178 170 172 182 178 166 167 184 153 84 341 326 296 250 228 214 202 205 207 202 208 210 215 226
174 174 171 173 175 173 172 168 168 167 183 185 186 185 186 183 182 181 173 177 176 168 174 180 166 157 197 157 141 116 336 333 313 262 228 202 201 201 212 216 209 210 216
180 180 178 178 177 177 170 154 141 114 101 151 191 199 199 189 191 188 179 176 176 171 181 189 177 168 186 208 169 155 168 232 290 309 281 239 203 204 220 220 212 210 212
186 182 176 177 179 179 171 169 167 173 187 202 195 196 200 194 191 186 177 176 177 177 184 196 183 174 168 193 214 203 187 175 184 297 315 296 253 231 226 227 218 206 205
184 180 178 175 179 180 179 179 180 186 193 189 182 187 197 200 195 188 181 178 182 186 191 193 181 181 179 184 189 197 210 199 181 186 273 300 306 266 228 216 203 198 197
180 177 175 176 183 182 183 184 185 187 185 179 184 189 198 199 202 202 188 183 187 189 193 193 191 187 194 194 192 186 184 189 197 187 219 255 272 276 244 205 194 199 192